TimeCDT,TemperatureF,Dew PointF,Humidity,Sea Level PressureIn,VisibilityMPH,Wind Direction,Wind SpeedMPH,Gust SpeedMPH,PrecipitationIn,Events,Conditions,WindDirDegrees,DateUTC
12:15 AM,64.4,57.2,77,29.88,10.0,SE,6.9,-,N/A,,Clear,130,2013-09-26 05:15:00
12:35 AM,62.6,57.2,82,29.88,10.0,SE,5.8,-,N/A,,Clear,130,2013-09-26 05:35:00
12:55 AM,62.6,55.4,77,29.88,10.0,SE,6.9,-,N/A,,Clear,140,2013-09-26 05:55:00
1:15 AM,62.6,55.4,77,29.88,10.0,SE,6.9,-,N/A,,Clear,140,2013-09-26 06:15:00
1:35 AM,62.6,55.4,77,29.87,10.0,SE,8.1,-,N/A,,Clear,140,2013-09-26 06:35:00
1:55 AM,62.6,55.4,77,29.87,10.0,SE,6.9,-,N/A,,Clear,140,2013-09-26 06:55:00
2:15 AM,60.8,55.4,82,29.87,10.0,SE,5.8,-,N/A,,Clear,140,2013-09-26 07:15:00
2:35 AM,60.8,55.4,82,29.87,10.0,Calm,Calm,-,N/A,,Clear,0,2013-09-26 07:35:00
2:55 AM,60.8,55.4,82,29.88,10.0,Calm,Calm,-,N/A,,Clear,0,2013-09-26 07:55:00
3:35 AM,59.0,53.6,82,29.87,10.0,Calm,Calm,-,N/A,,Clear,0,2013-09-26 08:35:00
3:55 AM,60.8,55.4,82,29.87,10.0,ESE,6.9,-,N/A,,Clear,110,2013-09-26 08:55:00
4:15 AM,60.8,55.4,82,29.87,10.0,ESE,5.8,-,N/A,,Clear,110,2013-09-26 09:15:00
4:35 AM,60.8,55.4,82,29.87,10.0,ESE,6.9,-,N/A,,Clear,110,2013-09-26 09:35:00
4:55 AM,60.8,55.4,82,29.88,10.0,ESE,6.9,-,N/A,,Clear,110,2013-09-26 09:55:00
5:15 AM,60.8,53.6,77,29.88,10.0,ESE,5.8,-,N/A,,Clear,120,2013-09-26 10:15:00
5:35 AM,60.8,53.6,77,29.89,10.0,ESE,5.8,-,N/A,,Clear,120,2013-09-26 10:35:00
5:55 AM,60.8,53.6,77,29.89,10.0,SE,8.1,-,N/A,,Clear,130,2013-09-26 10:55:00
6:35 AM,60.8,53.6,77,29.90,10.0,SE,6.9,-,N/A,,Clear,140,2013-09-26 11:35:00
6:55 AM,60.8,53.6,77,29.91,10.0,SE,6.9,-,N/A,,Clear,130,2013-09-26 11:55:00
7:15 AM,60.8,53.6,77,29.92,10.0,SE,6.9,-,N/A,,Clear,130,2013-09-26 12:15:00
7:35 AM,60.8,53.6,77,29.92,10.0,SE,6.9,-,N/A,,Clear,130,2013-09-26 12:35:00
7:55 AM,62.6,55.4,77,29.94,10.0,SSE,6.9,-,N/A,,Clear,150,2013-09-26 12:55:00
8:15 AM,62.6,55.4,77,29.94,10.0,SE,8.1,-,N/A,,Clear,130,2013-09-26 13:15:00
8:35 AM,64.4,55.4,73,29.95,10.0,SE,8.1,-,N/A,,Clear,140,2013-09-26 13:35:00
8:55 AM,66.2,57.2,73,29.95,10.0,SSE,13.8,90.9,N/A,,Clear,160,2013-09-26 13:55:00
9:15 AM,68.0,57.2,68,29.96,10.0,Calm,Calm,-,N/A,,Clear,0,2013-09-26 14:15:00
9:35 AM,69.8,57.2,64,29.96,10.0,SSE,8.1,-,N/A,,Clear,150,2013-09-26 14:35:00
9:55 AM,71.6,57.2,60,29.97,10.0,SSE,9.2,-,0.02,,Clear,150,2013-09-26 14:55:00
10:15 AM,73.4,59.0,61,29.97,10.0,SSE,8.1,-,N/A,,Clear,160,2013-09-26 15:15:00
10:35 AM,75.2,59.0,57,29.97,10.0,SSE,6.9,-,N/A,,Clear,160,2013-09-26 15:35:00
10:55 AM,75.2,59.0,57,29.98,-9999.0,SSE,9.2,-,N/A,,Unknown,160,2013-09-26 15:55:00
11:15 AM,78.8,60.8,54,29.98,-9999.0,SSE,5.8,-,N/A,,Unknown,150,2013-09-26 16:15:00
11:35 AM,78.8,60.8,54,29.98,10.0,SSE,5.8,-,N/A,,Unknown,160,2013-09-26 16:35:00
11:55 AM,78.8,60.8,54,29.97,10.0,SE,8.1,-,N/A,,Clear,130,2013-09-26 16:55:00
12:15 PM,-9999,-9999,N/A,-9999,10.0,North,-9999.0,-,N/A,,Clear,0,2013-09-26 17:15:00
12:35 PM,-9999,-9999,N/A,29.96,-9999.0,ESE,6.9,-,N/A,,Unknown,120,2013-09-26 17:35:00
12:55 PM,-9999,-9999,N/A,29.96,-9999.0,SSE,11.5,-,N/A,,Unknown,160,2013-09-26 17:55:00
1:15 PM,82.4,57.2,42,29.96,10.0,South,9.2,-,N/A,,Clear,190,2013-09-26 18:15:00
1:35 PM,82.4,55.4,39,29.95,10.0,SSE,8.1,-,N/A,,Clear,150,2013-09-26 18:35:00
1:55 PM,84.2,57.2,40,29.94,10.0,SSE,6.9,-,N/A,,Clear,150,2013-09-26 18:55:00
2:15 PM,84.2,57.2,40,29.94,10.0,SE,9.2,-,N/A,,Clear,140,2013-09-26 19:15:00
2:35 PM,84.2,57.2,40,29.93,10.0,SE,8.1,-,N/A,,Clear,140,2013-09-26 19:35:00
2:55 PM,84.2,57.2,40,29.93,10.0,ESE,8.1,-,N/A,,Clear,120,2013-09-26 19:55:00
3:15 PM,84.2,57.2,40,29.93,10.0,SE,8.1,-,N/A,,Clear,130,2013-09-26 20:15:00
3:35 PM,84.2,57.2,40,29.93,10.0,SE,5.8,-,N/A,,Clear,130,2013-09-26 20:35:00
3:55 PM,84.2,57.2,40,29.92,10.0,SE,6.9,-,N/A,,Clear,130,2013-09-26 20:55:00
4:15 PM,86.0,57.2,37,29.92,10.0,SE,8.1,-,N/A,,Clear,140,2013-09-26 21:15:00
4:35 PM,86.0,57.2,37,29.92,10.0,East,8.1,-,N/A,,Clear,100,2013-09-26 21:35:00
4:55 PM,84.2,59.0,42,29.92,10.0,ESE,6.9,-,N/A,,Clear,120,2013-09-26 21:55:00
5:15 PM,84.2,57.2,40,29.91,10.0,SE,6.9,-,N/A,,Clear,140,2013-09-26 22:15:00
5:35 PM,84.2,57.2,40,29.91,10.0,ESE,9.2,-,N/A,,Clear,110,2013-09-26 22:35:00
5:55 PM,84.2,57.2,40,29.92,10.0,SE,9.2,-,N/A,,Clear,130,2013-09-26 22:55:00
6:15 PM,82.4,57.2,42,29.92,10.0,ESE,8.1,-,N/A,,Clear,120,2013-09-26 23:15:00
6:35 PM,82.4,57.2,42,29.92,10.0,ESE,5.8,-,N/A,,Clear,120,2013-09-26 23:35:00
6:55 PM,78.8,57.2,47,29.92,10.0,SE,5.8,-,N/A,,Clear,140,2013-09-26 23:55:00
7:15 PM,75.2,57.2,53,29.92,10.0,SE,6.9,-,N/A,,Clear,140,2013-09-27 00:15:00
7:35 PM,73.4,57.2,57,29.92,10.0,SE,5.8,-,N/A,,Clear,140,2013-09-27 00:35:00
7:55 PM,71.6,57.2,60,29.93,10.0,SSE,5.8,-,N/A,,Clear,150,2013-09-27 00:55:00
8:15 PM,71.6,57.2,60,29.93,10.0,SSE,5.8,-,N/A,,Clear,150,2013-09-27 01:15:00
8:35 PM,71.6,57.2,60,29.94,10.0,SE,5.8,-,N/A,,Clear,140,2013-09-27 01:35:00
8:55 PM,69.8,57.2,64,29.94,10.0,SE,5.8,-,N/A,,Clear,140,2013-09-27 01:55:00
9:15 PM,69.8,57.2,64,29.95,10.0,SE,5.8,-,N/A,,Clear,140,2013-09-27 02:15:00
9:35 PM,69.8,57.2,64,29.95,10.0,ESE,5.8,-,N/A,,Clear,120,2013-09-27 02:35:00
9:55 PM,68.0,57.2,68,29.95,10.0,SE,6.9,-,N/A,,Clear,130,2013-09-27 02:55:00
10:15 PM,68.0,57.2,68,29.95,10.0,SE,6.9,-,N/A,,Clear,130,2013-09-27 03:15:00
10:35 PM,68.0,57.2,68,29.95,10.0,SE,8.1,-,N/A,,Clear,130,2013-09-27 03:35:00
10:55 PM,69.8,57.2,64,29.95,10.0,SE,8.1,-,N/A,,Clear,140,2013-09-27 03:55:00
11:15 PM,69.8,57.2,64,29.96,10.0,SE,9.2,-,N/A,,Clear,140,2013-09-27 04:15:00
11:35 PM,68.0,57.2,68,29.96,10.0,SE,8.1,-,N/A,,Clear,140,2013-09-27 04:35:00
11:55 PM,66.2,57.2,73,29.96,10.0,SE,8.1,-,N/A,,Clear,140,2013-09-27 04:55:00